Location: Arrodets-la-Barthe
(43.0306°N, 0.2829°E)
Time: 14:17:08
(UTC+00:00)

TIGRISAT - Visible Passes

Search period start: 27 March 2023 00:00
Search period end: 06 April 2023 00:00
Orbit: 601 x 682 km, 97.7° (Epoch: 27 March)

Date Brightness Start Highest point End Pass type
(mag) Time Alt. Az. Time Alt. Az. Time Alt. Az.
27 Mar ? 04:18:19 10° SE 04:22:25 41° ENE 04:26:39 10° N visible
27 Mar ? 19:22:29 10° NW 19:24:14 12° WNW 19:26:00 10° W visible
28 Mar ? 04:41:57 10° SSE 04:46:19 75° ENE 04:50:48 10° N visible
29 Mar ? 03:31:48 10° E 03:34:15 15° ENE 03:36:44 10° NNE visible
29 Mar ? 05:05:57 10° S 05:10:17 61° W 05:14:45 10° NNW visible
30 Mar ? 03:54:22 10° ESE 03:57:56 24° ENE 04:01:35 10° NNE visible
30 Mar ? 18:56:32 10° NNW 18:59:53 20° WNW 19:03:14 10° WSW visible
31 Mar ? 04:17:34 10° SE 04:21:43 41° ENE 04:25:59 10° N visible
31 Mar ? 19:21:46 10° NW 19:23:33 12° WNW 19:25:19 10° W visible
01 Apr ? 04:41:10 10° SSE 04:45:34 75° ENE 04:50:08 10° N visible
02 Apr ? 03:30:59 10° E 03:33:30 15° ENE 03:36:03 10° NNE visible
02 Apr ? 05:05:09 10° S 05:09:31 61° W 05:14:03 10° NNW visible
03 Apr ? 03:53:34 10° ESE 03:57:10 25° ENE 04:00:51 10° NNE visible
03 Apr ? 18:55:47 10° NNW 18:59:08 20° WNW 19:02:28 10° WSW visible
04 Apr ? 04:16:44 10° SE 04:20:55 42° ENE 04:25:14 10° N visible
04 Apr ? 19:20:59 10° NW 19:22:46 12° WNW 19:24:32 10° W visible
05 Apr ? 04:40:18 10° SSE 04:44:45 75° ENE 04:49:21 10° N visible
